Location: Cheyres
(46.8153°N, 6.7877°E)
Time: 04:23:36
(UTC+00:00)

ARIANE 5 R/B - Pass Details

Date: 11 May 2021
Orbit: 620 x 656 km, 98.1° (Epoch: 13 June)

Event Time Altitude Azimuth Distance (km) Brightness Sun altitude
Exits shadow 20:52:23 26° 168° (SSE) 1,221 3.6 -16.1°
Maximum altitude 20:54:46 86° 253° (WSW) 629 2.5 -16.4°
Drops below altitude 10° 20:59:08 10° 346° (NNW) 1,999 6.2 -16.8°
Sets 21:01:20 0° 347° (NNW) 2,911 7.3 -17.0°
